Lake Houston Weather Center

Moon Phase Calendar



Lake Houston Water Level
Online Cameras

 


      

Current Conditions in Atascocita
5/20/2022 10:26:48 PM

82°F
Feels Like 87
Clouds
Humidity
72%
Pressure
29.71"
Wind
9 mph (SSE)
Dew Point
72°F
UV Index
0/10 (Low)
Visibility
6 mi

Hourly Forecast

Date & Time Fri, May 20
10:00 PM
Fri, May 20
11:00 PM
Sat, May 21
12:00 AM
Sat, May 21
1:00 AM
Sat, May 21
2:00 AM
Sat, May 21
3:00 AM
Sat, May 21
4:00 AM
Sat, May 21
5:00 AM
Sat, May 21
6:00 AM
Sat, May 21
7:00 AM
Sat, May 21
8:00 AM
Sat, May 21
9:00 AM
Sat, May 21
10:00 AM
Sat, May 21
11:00 AM
Sat, May 21
12:00 PM
Sat, May 21
1:00 PM
Sat, May 21
2:00 PM
Sat, May 21
3:00 PM
Sat, May 21
4:00 PM
Sat, May 21
5:00 PM
Sat, May 21
6:00 PM
Sat, May 21
7:00 PM
Sat, May 21
8:00 PM
Sat, May 21
9:00 PM
Sat, May 21
10:00 PM
Sat, May 21
11:00 PM
Sun, May 22
12:00 AM
Sun, May 22
1:00 AM
Sun, May 22
2:00 AM
Sun, May 22
3:00 AM
Sun, May 22
4:00 AM
Sun, May 22
5:00 AM
Sun, May 22
6:00 AM
Sun, May 22
7:00 AM
Sun, May 22
8:00 AM
Sun, May 22
9:00 AM
Sun, May 22
10:00 AM
Sun, May 22
11:00 AM
Sun, May 22
12:00 PM
Sun, May 22
1:00 PM
Sun, May 22
2:00 PM
Sun, May 22
3:00 PM
Sun, May 22
4:00 PM
Sun, May 22
5:00 PM
Sun, May 22
6:00 PM
Sun, May 22
7:00 PM
Sun, May 22
8:00 PM
Sun, May 22
9:00 PM
Condition
Clouds

Clouds

Clouds

Clouds

Clouds

Clouds

Clouds

Clouds

Clouds

Clouds

Clouds

Clouds

Clouds

Clouds

Clouds

Clouds

Clouds

Clouds

Clouds

Clouds

Clouds

Clouds

Clear

Clear

Clouds

Clouds

Rain

Rain

Rain

Rain

Rain

Rain

Rain

Rain

Rain

Rain

Clouds

Rain

Rain

Rain

Rain

Rain

Rain

Clouds

Clouds

Clouds

Clear

Clear
Temperature 82°F82°F82°F81°F80°F78°F78°F79°F80°F80°F82°F84°F88°F91°F93°F94°F95°F96°F96°F94°F92°F88°F84°F82°F81°F80°F79°F78°F74°F72°F72°F72°F70°F68°F68°F68°F70°F75°F79°F84°F85°F84°F84°F85°F85°F84°F80°F77°F
Feels Like 87°F87°F87°F86°F80°F80°F80°F79°F84°F85°F87°F90°F94°F96°F98°F100°F102°F103°F102°F101°F99°F96°F92°F89°F87°F86°F79°F79°F76°F73°F73°F73°F72°F69°F69°F69°F71°F76°F79°F89°F90°F90°F89°F89°F89°F88°F83°F79°F
Cloudiness 12%15%24%36%79%93%95%96%97%97%100%100%100%100%100%99%66%60%46%40%36%30%4%2%30%44%55%63%100%100%100%100%100%100%100%100%100%100%100%100%82%88%87%87%81%69%7%5%
Visibility 6 mi6 mi6 mi6 mi6 mi6 mi6 mi6 mi6 mi6 mi6 mi6 mi6 mi6 mi6 mi6 mi6 mi6 mi6 mi6 mi6 mi6 mi6 mi6 mi6 mi6 mi6 mi6 mi6 mi6 mi6 mi6 mi6 mi6 mi6 mi6 mi6 mi6 mi6 mi6 mi6 mi6 mi6 mi6 mi6 mi6 mi6 mi6 mi
Precipitation 0%0%0%0%0%0%0%0%0%0%0%0%0%0%0%0%0%0%0%0%0%0%0%0%2%16%48%74%100%100%100%100%100%100%54%44%42%70%88%84%83%98%94%90%90%90%28%20%
Humidity 72%74%76%78%82%88%87%83%81%81%77%66%55%49%46%45%44%44%43%45%51%61%73%79%83%85%88%90%91%92%93%94%96%95%94%92%87%80%74%65%65%67%68%63%60%62%72%80%
Dew Point 72°F73°F73°F74°F74°F74°F74°F74°F74°F74°F74°F72°F70°F69°F69°F69°F70°F70°F69°F69°F71°F73°F74°F75°F75°F75°F75°F74°F71°F69°F69°F70°F69°F67°F66°F66°F66°F68°F70°F71°F72°F72°F72°F70°F69°F70°F70°F70°F
Pressure 29.71"29.71"29.71"29.74"29.77"29.77"29.8"29.77"29.77"29.8"29.85"29.85"29.88"29.88"29.88"29.88"29.88"29.85"29.85"29.85"29.85"29.83"29.85"29.88"29.91"29.94"29.97"30"30.03"30"30"30"30.03"30.06"30.09"30.12"30.12"30.12"30.09"30.09"30.09"30.06"30.06"30.03"30"30"30"30.03"
Wind Speed 12.8 mph15.4 mph14.2 mph11.5 mph8.5 mph7.2 mph9.2 mph12.7 mph11 mph10.4 mph11.9 mph13.4 mph15.1 mph16.2 mph16.6 mph16.8 mph16.6 mph16.2 mph15.5 mph15.2 mph15 mph16.3 mph14.4 mph12.3 mph9.9 mph9.6 mph3.4 mph0.8 mph7.4 mph6.5 mph5 mph5.3 mph10.2 mph9.8 mph11 mph11.4 mph10.2 mph8.6 mph6.6 mph4.2 mph4.3 mph4.1 mph2.7 mph3 mph3.5 mph5.4 mph6.7 mph7.3 mph
Wind
Direction
153°
SSE
145°
SE
158°
SSE
178°
S
200°
SSW
150°
SSE
160°
SSE
160°
SSE
168°
SSE
170°
S
173°
S
176°
S
175°
S
172°
S
164°
SSE
159°
SSE
158°
SSE
156°
SSE
156°
SSE
154°
SSE
147°
SSE
145°
SE
146°
SE
147°
SSE
146°
SE
143°
SE
156°
SSE
145°
SE
334°
NNW

N
32°
NNE

N
359°
N
349°
N
359°
N
12°
NNE
17°
NNE
29°
NNE
37°
NE
64°
ENE
175°
S
198°
SSW
155°
SSE
97°
E
135°
SE
65°
ENE
42°
NE
37°
NE

Daily Forecast

Date High Low Precip. Humidity
Today
May 20

Clear
94 °F
77 °F
0%
43%
Saturday
May 21

Clouds
96 °F
78 °F
16%
45%
Sunday
May 22

Rain
84 °F
68 °F
100%
65%
Monday
May 23

Rain
84 °F
70 °F
100%
63%
Tuesday
May 24

Rain
80 °F
72 °F
100%
82%
Wednesday
May 25

Rain
91 °F
76 °F
74%
47%
Thursday
May 26

Rain
85 °F
73 °F
100%
65%
Friday
May 27

Rain
87 °F
67 °F
29%
57%
Saturday
May 28

Clouds
91 °F
75 °F
0%
46%
Sunday
May 29

Rain
92 °F
76 °F
20%
47%
Monday
May 30

Rain
91 °F
76 °F
24%
46%
Tuesday
May 31

Rain
91 °F
76 °F
36%
49%
Wednesday
Jun 1

Clouds
93 °F
75 °F
0%
39%
Thursday
Jun 2

Rain
94 °F
74 °F
54%
39%
Friday
Jun 3

Clear
95 °F
76 °F
2%
38%
Saturday
Jun 4

Clear
96 °F
77 °F
0%
37%

Temperature 8-14 Day Outlook



Precipitation 8-14 Day Outlook




Quick Links
Lake Houston News
Lake Houston Photos
Lake Houston Videos




About Us
Contact Us
Site Map
Search Site
Advertise With Us
   
Houston.USLakes.info
THE LAKE HOUSTON WEBSITE

Copyright 2022, Lakes Online
Privacy    |    Legal